Temperature
9 9 9 10 10 10 10 10 10 10 10 10 10 10 10 10 10 10 10 10 10 10 10 10 10 10 10 10 10 10 10 10 10 10 10 10 10 10 10 10 10 10 10
9 9 9 9 9 9 9 9 9 9 9 9 9 9 9 9 9 9 9 9 10 10 10 10 10 10 10 10 10 10 10 10 10 10 10 10 10 10 10 10 10 10 10
8 8 8 9 9 9 9 9 9 9 9 9 9 9 9 9 9 9 9 9 9 9 9 9 9 9 9 9 9 9 9 9 9 9 9 9 9 9 10 10 10 10 10
8 8 8 8 8 8 8 8 8 8 8 8 8 8 9 9 9 9 9 9 9 9 9 9 9 9 9 9 9 9 9 9 9 9 9 9 9 9 9 9 9 9 9
7 7 7 8 7 8 8 8 8 8 8 8 8 8 8 8 8 8 8 8 8 8 8 8 8 8 8 8 8 8 8 8 8 8 8 8 8 8 8 8 9 9 9
7 7 7 7 7 7 7 7 7 7 7 7 7 7 7 7 8 8 8 8 8 8 8 8 8 8 8 8 8 8 7 7 7 8 8 8 8 8 8 8 8 8 8
6 6 6 6 6 7 7 7 7 7 7 7 7 6 7 7 7 7 7 7 7 7 7 7 7 7 7 7 7 7 7 7 7 7 7 7 7 7 7 7 8 8 8
6 6 6 6 6 6 6 6 6 6 6 6 6 6 6 6 6 6 7 7 7 7 7 7 7 7 7 7 7 7 6 6 6 6 7 7 7 7 7 7 7 7 7
5 5 5 5 5 5 5 5 5 5 5 5 5 5 5 5 5 6 6 6 6 6 6 6 6 6 6 6 6 6 6 6 6 6 6 6 6 6 6 7 7 7 7
5 5 5 5 5 5 5 5 5 5 5 5 5 5 5 5 4 4 5 6 5 5 5 6 6 6 6 6 6 6 6 6 6 6 6 6 6 6 6 6 6 6 6
4 4 4 4 4 4 4 4 4 4 4 4 4 4 4 4 4 4 4 5 5 5 5 5 5 5 5 5 5 5 5 5 5 5 5 5 5 5 5 5 5 6 6
3 3 3 3 3 3 4 4 4 4 4 4 4 4 4 4 4 4 4 4 4 4 4 5 4 4 4 4 4 4 4 5 5 4 5 5 5 5 5 5 5 5 5
3 3 3 3 3 3 3 3 3 3 3 3 3 3 3 3 3 3 3 3 3 3 4 4 4 4 4 4 4 4 4 4 4 4 4 4 4 4 4 4 4 5 5
2 2 2 2 2 2 2 2 2 2 2 2 2 3 3 2 2 2 2 2 2 2 2 3 3 3 3 3 3 3 3 3 3 3 3 3 4 4 4 4 4 4 4
1 1 1 1 1 1 1 2 2 2 2 2 2 2 2 2 2 2 2 1 1 1 1 2 2 2 2 2 2 2 2 2 3 3 3 3 3 3 3 3 3 3 3
1 1 1 1 1 1 1 1 1 1 1 1 1 1 1 1 1 1 1 1 1 1 1 1 2 1 1 1 1 1 1 2 2 2 2 2 2 2 2 2 2 3 3
0 0 0 0 0 0 0 0 0 0 0 0 1 1 1 1 1 1 1 1 0 0 0 1 1 1 1 1 1 1 1 1 1 1 1 2 2 2 2 2 2 2 2
-0 -0 -0 -0 -0 -0 -0 -0 -0 -0 -0 -0 -0 0 0 -0 0 0 0 0 -0 -0 -0 -0 0 0 0 0 0 -0 0 0 0 1 1 1 1 1 1 1 1 1 1
-1 -1 -1 -1 -1 -1 -1 -1 -1 -1 -1 -1 -1 -1 -1 -1 -1 -0 -1 -1 -1 -1 -1 -1 -1 -1 -1 -1 -1 -0 -0 -0 -0 -0 0 0 0 0 0 1 1 1 1
-1 -1 -1 -2 -2 -2 -1 -1 -1 -1 -1 -1 -1 -1 -1 -1 -1 -1 -1 -1 -1 -1 -1 -1 -1 -1 -1 -1 -2 -1 -1 -1 -1 -1 -1 -1 -1 -1 -0 -0 -0 0 0
-2 -2 -2 -2 -2 -2 -2 -2 -2 -2 -2 -2 -2 -2 -2 -2 -2 -2 -2 -2 -2 -2 -2 -2 -2 -2 -2 -2 -2 -2 -2 -2 -2 -2 -2 -1 -2 -1 -1 -1 -1 -1 -1
-3 -3 -3 -3 -3 -3 -3 -3 -3 -3 -3 -3 -3 -3 -3 -2 -2 -2 -3 -3 -3 -3 -3 -3 -3 -3 -3 -3 -3 -3 -3 -3 -3 -3 -3 -2 -2 -2 -2 -2 -2 -2 -1
-4 -4 -4 -3 -3 -3 -3 -3 -3 -4 -3 -3 -3 -3 -3 -3 -3 -3 -3 -3 -3 -3 -3 -4 -4 -3 -3 -3 -3 -3 -3 -3 -3 -3 -4 -3 -3 -3 -3 -3 -2 -2 -2
-4 -4 -4 -4 -4 -4 -4 -4 -4 -4 -4 -4 -4 -4 -4 -4 -4 -4 -4 -4 -4 -4 -4 -4 -4 -4 -4 -4 -4 -4 -4 -4 -4 -4 -4 -4 -3 -3 -3 -3 -3 -3 -3
-5 -5 -5 -5 -5 -5 -5 -5 -5 -5 -5 -5 -5 -5 -5 -5 -5 -5 -5 -5 -5 -4 -4 -5 -5 -5 -5 -5 -5 -5 -5 -5 -5 -5 -5 -5 -4 -4 -4 -4 -4 -4 -4
-6 -6 -6 -6 -6 -6 -6 -6 -6 -6 -6 -6 -6 -6 -6 -6 -6 -6 -6 -6 -5 -5 -5 -5 -5 -5 -5 -5 -5 -5 -5 -6 -6 -6 -6 -6 -6 -6 -5 -5 -4 -4 -4
Wind_Speed
4 4 4 5 5 6 6 5 5 6 6 7 6 7 6 7 7 7 7 7 7 7 6 5 6 6 6 6 7 7 7 8 7 7 7 7 8 8 8 7 4 5 4
4 4 3 3 4 4 5 5 5 5 5 5 5 6 5 5 6 6 6 6 7 7 6 6 6 6 5 5 5 6 6 6 6 7 7 7 7 7 7 7 6 5 5
5 4 3 3 3 4 5 5 6 6 4 4 4 5 5 5 5 6 6 6 6 7 7 6 6 6 5 5 5 5 5 5 5 6 6 6 6 6 6 6 7 5 4
5 4 3 2 3 4 4 4 4 3 3 3 2 2 3 4 4 4 5 6 6 6 6 7 6 6 5 5 5 5 5 5 5 4 4 4 5 6 5 6 6 7 5
5 4 3 3 4 4 3 3 2 2 3 3 2 2 3 3 3 3 4 4 5 5 5 6 7 6 5 5 5 4 4 4 4 4 4 3 3 4 4 4 5 5 6
5 4 3 4 4 3 2 2 3 2 2 2 3 3 2 2 3 2 2 3 4 4 5 5 6 6 6 5 4 4 3 3 3 3 3 3 3 3 3 3 4 4 4
4 4 4 3 3 3 2 2 3 3 2 2 2 2 2 1 1 1 2 2 2 3 4 5 5 4 4 4 4 4 3 2 2 2 2 2 2 2 3 3 3 4 4
4 4 4 3 3 3 3 2 2 2 1 1 2 2 1 2 2 2 2 1 2 3 3 3 3 3 3 3 3 3 3 3 2 2 2 2 3 3 3 3 4 4 4
3 3 3 3 3 3 3 3 3 3 2 0 1 2 2 2 1 2 1 1 2 2 2 2 2 2 2 2 2 2 3 4 4 3 3 3 3 3 3 4 4 4 4
2 2 3 3 3 3 2 3 2 2 3 2 0 0 1 2 2 1 2 1 2 2 2 3 2 2 2 2 2 3 3 4 5 5 5 4 4 4 4 4 5 5 5
1 2 2 2 2 2 3 2 2 2 2 3 2 1 1 1 0 2 2 2 2 2 2 2 2 2 3 3 3 4 4 5 5 6 6 6 6 6 6 6 5 6 6
0 0 1 1 1 2 2 3 3 2 2 2 2 2 2 2 2 2 3 3 3 2 2 2 2 2 3 3 4 4 5 6 6 7 7 7 7 6 7 7 6 7 7
1 1 0 1 1 2 2 2 2 2 2 2 3 2 3 2 2 2 2 2 3 2 2 1 2 2 3 3 4 5 5 6 7 7 8 8 7 7 7 7 7 7 7
1 1 1 1 1 2 2 2 2 2 2 3 3 3 3 3 2 2 3 2 2 2 2 3 1 2 2 3 4 4 4 6 6 7 8 7 7 7 7 7 7 7 7
1 1 1 1 1 2 2 2 2 2 2 3 3 3 3 3 3 2 2 3 3 3 4 3 2 2 3 3 4 4 4 5 6 7 7 7 7 7 7 8 8 7 7
1 1 1 1 1 2 2 2 2 2 2 2 2 3 3 3 3 3 3 3 3 4 4 3 3 2 3 4 5 4 5 6 6 7 7 7 7 8 8 8 8 8 9
1 2 2 1 2 2 2 2 3 3 3 3 3 3 4 3 3 3 2 3 3 3 5 4 2 2 2 2 3 4 4 4 5 6 7 7 7 7 8 8 9 9 9
2 2 2 1 2 2 2 3 3 3 4 4 4 4 4 3 4 3 3 4 4 4 4 5 3 2 2 3 2 2 3 4 5 6 7 7 7 7 7 8 9 9 9
2 2 2 2 2 3 3 3 3 4 4 5 5 5 5 5 5 4 4 4 4 4 4 4 4 2 2 2 2 3 3 3 5 5 5 6 6 7 8 8 9 9 9
2 2 2 2 3 3 3 3 3 3 4 4 5 5 5 6 6 6 5 5 4 4 3 3 3 2 2 2 2 2 3 2 3 4 5 6 7 8 8 9 9 9 9
2 2 2 3 3 3 3 3 3 3 3 4 4 5 5 6 7 6 5 5 5 4 4 3 4 3 2 2 3 2 3 3 3 2 2 4 5 6 7 8 8 9 9
2 2 2 2 3 3 5 5 4 3 3 4 4 4 5 6 7 7 8 7 6 5 5 5 5 5 5 4 3 3 3 2 3 2 2 4 3 4 5 6 8 8 9
2 2 2 2 3 4 6 6 4 3 3 4 4 4 4 5 5 4 6 6 6 7 7 6 6 7 6 5 4 4 4 4 5 3 2 4 2 3 5 7 8 8 8
2 2 3 3 3 4 6 5 4 3 3 3 4 5 5 5 5 5 4 4 4 5 6 5 5 6 5 5 6 5 5 4 3 2 2 4 3 4 5 7 8 7 8
2 2 2 2 2 4 5 5 5 2 2 3 4 4 5 5 7 7 5 5 5 5 5 6 6 6 6 6 5 2 3 3 4 3 2 2 3 3 4 4 6 7 8
2 2 3 2 3 3 5 5 5 2 2 3 3 4 5 6 7 7 5 5 6 5 4 4 4 4 4 4 5 4 4 4 3 3 2 2 2 2 3 3 4 6 7
Wind_Direction
102 89 81 82 80 83 85 84 84 84 81 78 77 77 66 58 56 55 49 46 48 55 66 79 86 82 78 80 79 77 76 75 73 72 68 65 62 57 51 53 63 66 70
121 107 90 82 77 83 88 95 97 92 84 83 75 70 68 61 58 56 51 45 42 44 52 59 75 77 73 73 81 80 77 74 71 69 68 64 60 55 50 48 50 54 53
130 122 108 95 88 92 90 93 92 90 85 79 69 62 62 61 59 55 53 50 46 43 44 49 60 67 68 66 73 79 77 74 69 69 64 61 58 52 47 48 46 45 46
136 127 122 118 114 105 97 96 92 89 84 79 72 49 50 53 53 58 60 56 54 51 44 40 49 60 63 64 67 71 71 69 64 64 61 58 54 47 44 50 48 42 39
143 137 133 126 121 109 98 100 92 107 107 89 78 54 39 40 47 53 54 52 55 57 51 44 44 49 57 60 59 61 65 65 62 58 58 52 44 35 35 39 41 37 32
148 140 127 121 120 111 103 100 107 93 111 113 86 55 21 19 43 42 37 44 46 50 50 48 46 45 44 50 46 42 44 54 59 54 45 42 35 24 17 16 17 14 12
147 143 131 125 125 131 138 124 113 107 93 101 92 59 14 16 23 12 20 34 38 38 46 47 44 43 34 29 34 27 19 15 21 25 14 10 3 354 354 344 339 341 348
143 147 138 146 143 135 132 127 117 117 112 110 123 113 15 339 343 340 355 5 12 27 31 28 35 33 30 23 14 16 1 346 334 324 329 328 330 323 323 333 333 333 338
134 134 147 143 147 150 162 166 160 149 159 177 101 137 153 216 297 319 317 333 350 7 357 1 3 357 358 2 352 346 332 322 312 301 300 303 310 305 304 306 314 324 332
123 138 149 150 149 151 157 178 157 169 155 172 181 63 134 157 171 279 306 315 319 319 329 335 337 316 311 317 310 307 303 300 297 295 291 296 305 305 304 309 303 304 311
124 142 147 149 154 165 167 163 162 174 173 174 176 158 119 48 166 192 253 287 317 302 315 313 309 300 301 300 293 292 289 286 290 294 292 289 295 295 296 296 304 301 299
197 106 142 145 166 177 181 180 173 187 191 181 179 177 174 176 193 194 230 260 276 293 306 323 299 280 287 306 303 305 295 292 290 291 291 288 290 294 293 295 298 301 303
244 271 239 185 197 207 196 176 172 201 203 193 199 214 208 204 188 198 216 251 271 286 290 298 301 279 287 304 298 298 293 295 293 290 289 287 286 293 295 291 293 300 306
256 245 222 227 227 214 207 189 191 210 207 212 219 216 219 219 206 201 204 209 263 281 271 266 310 290 291 292 295 306 302 295 290 289 287 288 288 290 293 290 287 292 300
289 264 232 232 231 216 209 198 214 218 213 220 223 227 231 232 223 219 215 206 207 244 259 250 255 291 288 291 298 306 298 300 290 286 287 285 286 285 284 285 282 283 289
297 273 244 241 238 223 213 210 227 222 216 230 227 219 236 241 228 222 216 225 224 227 244 243 248 285 296 292 294 296 289 300 299 289 286 282 281 279 280 283 284 284 286
264 262 251 244 255 258 242 232 235 226 220 230 231 225 238 240 228 221 218 223 226 228 247 267 265 287 281 291 300 286 282 286 290 288 286 284 284 285 283 282 285 286 284
302 279 256 249 257 260 254 241 238 233 228 232 233 229 236 238 234 223 218 225 227 229 233 257 270 272 270 271 284 293 296 287 286 284 284 286 287 287 285 287 288 288 288
320 312 283 257 259 257 254 250 241 240 236 236 235 231 232 229 236 229 221 222 229 238 234 240 259 262 278 281 291 299 304 299 292 291 290 290 292 292 292 292 290 289 289
314 299 295 271 258 254 251 250 245 242 243 246 244 236 233 229 232 230 225 222 222 229 230 235 253 259 264 265 256 276 294 295 304 298 288 289 292 293 292 291 291 289 286
309 302 300 300 284 266 252 248 247 244 245 254 252 244 241 239 240 238 232 221 216 220 224 233 247 255 249 251 251 252 269 287 291 296 294 288 287 287 286 286 287 288 288
316 306 296 293 294 289 278 269 264 243 247 248 255 255 251 246 248 250 248 242 229 225 226 230 241 245 246 243 240 251 259 280 278 268 285 291 282 284 284 280 284 290 292
315 308 297 286 281 287 293 285 272 254 248 252 249 251 262 257 256 245 251 249 247 246 235 229 235 238 238 232 227 237 237 244 260 253 267 274 281 281 283 283 291 294 298
304 302 297 286 285 293 296 298 288 269 253 256 253 246 249 256 248 240 239 239 239 245 239 230 229 235 236 227 220 228 232 254 281 268 241 265 275 278 285 282 282 289 298
312 304 296 296 293 298 302 300 305 290 267 265 264 259 253 253 257 250 240 240 248 254 248 243 247 253 259 254 239 219 222 241 273 270 235 248 273 293 287 273 275 287 295
297 300 301 299 290 293 303 305 302 285 282 283 279 267 262 259 263 260 240 235 242 250 245 249 257 266 261 252 239 220 216 230 253 263 225 230 263 303 294 276 273 286 289
Height
1534 1536 1537 1538 1540 1541 1542 1543 1544 1545 1546 1547 1549 1550 1551 1552 1552 1553 1554 1555 1556 1556 1557 1557 1558 1559 1559 1560 1560 1560 1561 1561 1562 1562 1562 1562 1562 1563 1563 1563 1563 1563 1563
1532 1534 1535 1536 1537 1539 1540 1541 1542 1543 1545 1546 1547 1548 1549 1550 1551 1552 1553 1553 1554 1555 1556 1556 1557 1558 1558 1558 1559 1559 1560 1560 1560 1561 1561 1561 1561 1562 1562 1562 1562 1562 1562
1530 1531 1533 1534 1535 1537 1538 1539 1540 1541 1543 1544 1545 1547 1548 1549 1550 1550 1551 1552 1553 1553 1554 1555 1555 1556 1557 1557 1558 1558 1558 1559 1559 1559 1560 1560 1560 1560 1560 1560 1560 1561 1561
1528 1529 1530 1531 1533 1534 1536 1537 1538 1539 1541 1542 1543 1544 1546 1547 1547 1548 1549 1550 1551 1552 1552 1553 1554 1554 1555 1555 1556 1556 1556 1557 1557 1558 1558 1558 1558 1559 1559 1559 1559 1559 1559
1525 1526 1528 1529 1530 1532 1533 1535 1536 1537 1538 1539 1541 1542 1543 1544 1545 1546 1547 1548 1549 1549 1550 1551 1551 1552 1553 1553 1554 1554 1555 1555 1555 1556 1556 1556 1557 1557 1557 1557 1557 1557 1557
1523 1524 1525 1526 1528 1529 1530 1532 1533 1535 1536 1537 1538 1539 1541 1542 1543 1544 1545 1545 1546 1547 1548 1548 1549 1549 1550 1551 1551 1552 1552 1553 1553 1554 1554 1554 1555 1555 1555 1555 1555 1555 1555
1519 1521 1522 1524 1525 1526 1528 1529 1530 1532 1533 1534 1535 1536 1538 1539 1540 1541 1542 1543 1543 1544 1545 1545 1546 1547 1548 1548 1549 1549 1550 1550 1551 1551 1552 1552 1552 1552 1553 1553 1553 1553 1553
1517 1518 1519 1521 1522 1523 1525 1526 1527 1529 1530 1531 1533 1534 1535 1537 1537 1538 1539 1540 1540 1541 1542 1542 1543 1544 1545 1545 1546 1547 1547 1548 1548 1549 1549 1549 1549 1550 1550 1550 1550 1550 1550
1514 1515 1517 1518 1519 1520 1521 1523 1524 1526 1527 1528 1530 1532 1533 1532 1533 1534 1535 1536 1537 1537 1538 1539 1540 1541 1542 1542 1543 1543 1544 1544 1545 1546 1546 1546 1546 1546 1547 1547 1547 1547 1547
1510 1512 1513 1514 1516 1517 1518 1520 1521 1523 1524 1525 1527 1528 1530 1530 1531 1531 1532 1532 1533 1534 1535 1536 1536 1537 1538 1538 1539 1539 1540 1541 1541 1542 1542 1543 1543 1543 1543 1543 1543 1543 1543
1507 1508 1510 1511 1512 1513 1515 1516 1517 1519 1520 1522 1523 1524 1526 1527 1527 1528 1527 1528 1530 1531 1531 1532 1532 1533 1534 1534 1535 1535 1536 1537 1538 1538 1538 1539 1539 1539 1539 1539 1539 1539 1540
1504 1505 1506 1507 1508 1509 1511 1512 1513 1515 1516 1518 1519 1521 1522 1523 1524 1524 1524 1524 1525 1526 1527 1528 1528 1529 1529 1530 1530 1531 1531 1532 1533 1534 1534 1534 1535 1535 1535 1535 1535 1535 1536
1501 1502 1503 1504 1505 1506 1507 1508 1510 1511 1512 1514 1515 1517 1518 1519 1520 1521 1522 1521 1521 1521 1522 1523 1524 1525 1526 1526 1526 1527 1527 1528 1528 1529 1529 1530 1530 1530 1531 1531 1531 1531 1531
1498 1499 1500 1501 1502 1503 1504 1505 1506 1507 1509 1510 1511 1512 1513 1515 1516 1517 1518 1518 1517 1517 1517 1519 1520 1521 1521 1522 1522 1522 1523 1523 1524 1524 1525 1525 1525 1526 1526 1526 1526 1526 1526
1495 1496 1497 1498 1498 1499 1500 1501 1502 1503 1505 1506 1507 1508 1509 1510 1511 1512 1513 1514 1516 1513 1513 1513 1515 1516 1517 1517 1518 1518 1518 1518 1519 1519 1520 1520 1520 1520 1521 1521 1521 1521 1521
1492 1493 1494 1494 1495 1496 1496 1497 1498 1499 1500 1501 1502 1503 1504 1505 1506 1507 1508 1509 1510 1510 1509 1509 1510 1511 1512 1512 1513 1513 1513 1513 1513 1514 1514 1515 1515 1515 1515 1516 1516 1516 1516
1489 1490 1490 1491 1491 1492 1493 1493 1494 1495 1495 1496 1497 1498 1499 1500 1501 1501 1502 1503 1504 1505 1504 1504 1505 1506 1507 1507 1507 1508 1508 1508 1508 1509 1509 1509 1509 1509 1510 1510 1510 1510 1510
1485 1486 1486 1487 1487 1488 1488 1489 1489 1490 1491 1491 1492 1493 1494 1495 1495 1496 1497 1498 1499 1500 1500 1499 1499 1500 1501 1502 1502 1502 1502 1503 1503 1503 1503 1503 1503 1503 1504 1504 1504 1504 1504
1481 1481 1482 1482 1483 1483 1484 1484 1484 1485 1485 1486 1487 1488 1488 1489 1490 1491 1491 1492 1493 1494 1494 1494 1493 1494 1495 1496 1496 1496 1496 1497 1497 1498 1497 1497 1498 1498 1498 1497 1498 1498 1498
1476 1477 1477 1477 1478 1478 1479 1479 1479 1480 1480 1480 1481 1482 1483 1484 1484 1485 1486 1487 1488 1488 1488 1488 1489 1489 1490 1490 1490 1490 1490 1491 1491 1492 1491 1491 1491 1491 1491 1491 1491 1492 1492
1471 1472 1472 1473 1473 1473 1474 1474 1474 1475 1475 1475 1476 1477 1478 1478 1479 1480 1481 1481 1482 1482 1483 1483 1483 1483 1484 1484 1485 1484 1484 1484 1485 1485 1485 1485 1485 1485 1485 1485 1485 1485 1486
1467 1467 1467 1468 1468 1468 1469 1469 1469 1469 1470 1470 1471 1471 1472 1473 1473 1474 1475 1476 1477 1477 1477 1477 1477 1477 1478 1479 1479 1479 1479 1479 1478 1480 1479 1479 1479 1478 1478 1479 1479 1479 1479
1463 1463 1463 1463 1463 1463 1464 1464 1464 1464 1464 1465 1465 1466 1467 1467 1468 1468 1469 1470 1471 1471 1472 1473 1472 1472 1473 1473 1474 1473 1474 1474 1473 1473 1473 1472 1473 1472 1473 1472 1473 1473 1473
1459 1459 1458 1458 1458 1459 1459 1459 1459 1459 1459 1460 1460 1461 1462 1462 1463 1463 1464 1464 1464 1465 1466 1466 1466 1467 1468 1468 1469 1469 1469 1468 1468 1468 1468 1467 1466 1467 1467 1467 1466 1467 1467
1455 1455 1455 1454 1454 1454 1455 1455 1455 1455 1455 1455 1455 1456 1456 1456 1457 1458 1458 1458 1458 1459 1459 1460 1461 1461 1462 1462 1463 1463 1463 1463 1461 1462 1463 1462 1461 1461 1460 1460 1461 1461 1461
1452 1451 1451 1451 1450 1450 1451 1451 1451 1451 1450 1450 1450 1451 1451 1451 1452 1452 1453 1453 1452 1453 1454 1454 1454 1455 1455 1456 1457 1457 1457 1457 1456 1456 1456 1457 1456 1456 1454 1453 1454 1454 1454